Home > Weather > Campo Grande > Past weeks

Flag for Brazil Past Weather in Campo Grande, Mato Grosso Do Sul, Brazil — Yesterday and Last 2 Weeks

Now
81 °F

Passing clouds.


Feels Like: 81 °F
Forecast: N/A
Wind: 6 mph from Southeast

Location: Campo Grande Aeroporto

Current Time: Aug 25, 2016 at 7:59:04 PM

Latest Report: Aug 25, 2016 at 7:00 PM


Visibility: N/A

Pressure: 30.01 "Hg (28.30 "Hg at 516m altitude)

Humidity: 42%

Dew Point: 55 °F

Location of Campo GrandeLocation

Past Weather in Campo Grande — Graph

°F

Campo Grande Temperature Yesterday

Maximum temperature yesterday: 88 °F (at 1:00 PM)
Minimum temperature yesterday: 57 °F (at 2:00 AM)
Average temperature yesterday: 72 °F

High & Low Weather Summary for the Past Weeks

 TemperatureHumidityPressure
High93 °F (Aug 14, 12:00 PM)100% (Aug 15, 10:00 PM)31.96 "Hg (Aug 15, 10:00 PM)
Low37 °F (Aug 15, 10:00 PM)24% (Aug 25, 1:00 PM)29.77 "Hg (Aug 20, 3:00 PM)
Average71 °F54%30.02 "Hg
* Reported Aug 10 6:00 PM — Aug 25 6:00 PM, Campo Grande, Weather by CustomWeather, © 2016

Note: Actual official high and low records may vary slightly from our data, if they occured in-between our weather recording intervals... More about our weather records

Advertising

Campo Grande Weather History for the Previous 24 Hours

Scroll right to see more
 ConditionsComfort  
Time TempWeatherWind HumidityBarometerVisibility
6:00 PM
Thu, Aug 25
81 °FPassing clouds.3 mph42%29.98 "HgN/A
5:00 PM90 °FPassing clouds.5 mph26%29.98 "HgN/A
4:00 PM91 °FScattered clouds.8 mph24%29.98 "HgN/A
3:00 PM91 °FScattered clouds.6 mph26%29.98 "HgN/A
2:00 PM91 °FScattered clouds.7 mph26%29.98 "HgN/A
1:00 PM91 °FPassing clouds.10 mph24%30.01 "HgN/A
12:00 PM91 °FPassing clouds.14 mph30%30.04 "Hg10 mi
11:00 AM91 °FSunny.17 mph34%30.07 "Hg10 mi
10:00 AM88 °FSunny.21 mph35%30.07 "Hg10 mi
9:00 AM84 °FSunny.16 mph43%30.07 "Hg10 mi
8:00 AM77 °FSunny.14 mph54%30.07 "Hg10 mi
7:00 AM72 °FSunny.10 mph65%30.07 "Hg10 mi
6:00 AM70 °FSunny.9 mph64%30.04 "Hg10 mi
5:00 AM72 °FSunny.13 mph61%30.01 "Hg10 mi
4:00 AM72 °FClear.13 mph61%30.01 "Hg10 mi
3:00 AM73 °FClear.12 mph57%30.01 "Hg10 mi
2:00 AM72 °FClear.8 mph61%30.01 "Hg10 mi
1:00 AM70 °FClear.9 mph64%30.04 "Hg10 mi
12:00 AM68 °FClear.7 mph64%30.04 "Hg10 mi
11:00 PM
Wed, Aug 24
68 °FClear.7 mph64%30.04 "Hg10 mi
10:00 PM68 °FClear.6 mph69%30.04 "Hg10 mi
9:00 PM68 °FClear.2 mph69%30.04 "Hg10 mi
8:00 PM75 °FClear.2 mph50%30.01 "Hg10 mi
7:00 PM75 °FClear.No wind47%30.01 "Hg10 mi
Weather by CustomWeather, © 2016

See weather overviewHow to use our weather pages